Regional Weather Roundup
Issued by NWS

Home | Current Version | Previous Version | Text Only | Print | Product List | Glossary On
Versions: 1 2 3 4 5 6 7 8 9 10 11 12 13 14 15 16 17 18 19 20 21 22 23 24 25 26 27 28 29 30 31 32 33 34 35 36 37 38 39 40 41 42 43 44 45 46 47 48 49 50
000
ASUS43 KMPX 301401
RWRMN
WEATHER ROUNDUP FOR MINNESOTA
NATIONAL WEATHER SERVICE TWIN CITIES/CHANHASSEN MN
900 AM CDT THU OCT 30 2014


NOTE: "FAIR" INDICATES FEW OR NO CLOUDS BELOW 12,000 FEET WITH NO
SIGNIFICANT WEATHER AND/OR OBSTRUCTIONS TO VISIBILITY. N/A MEANS
CURRENT SKY AND/OR WEATHER CONDITIONS ARE NOT AVAILABLE.

MNZ060>063-068>070-301500-
   Twin Cities Metro

CITY           SKY/WX    TMP DP  RH WIND       PRES   REMARKS
TWIN CITIES    CLOUDY    40  34  79 CALM      30.06R
ST PAUL        CLOUDY    41  34  76 CALM      30.07R
CRYSTAL        CLOUDY    42  35  76 CALM      30.05R
BLAINE         CLOUDY    41  39  93 CALM      30.05R
LAKEVILLE      CLOUDY    37  34  87 CALM      30.05R
EDEN PRAIRIE   CLOUDY    41  35  79 CALM      30.05R
SOUTH ST PAUL  CLOUDY    40  35  80 CALM      30.06R
LAKE ELMO      CLOUDY    39  36  87 CALM      30.06S
$$
MNZ001>005-007-008-013>017-022>024-027-028-301500-
   Northwest Minnesota

CITY           SKY/WX    TMP DP  RH WIND       PRES   REMARKS
BEMIDJI        CLOUDY    34  33  95 CALM      30.10R
HALLOCK        CLOUDY    36  32  87 N12       30.21R
ROSEAU         CLOUDY    36  30  80 NW7       30.16R
WARROAD        CLOUDY    34  30  86 NW7       30.15R WCI  28
THIEF RVR FALL CLOUDY    34  30  86 N7        30.16R WCI  28
CROOKSTON      CLOUDY    34  32  93 N9        30.19R WCI  26
FOSSTON        MOCLDY    34  32  93 N9        30.14R WCI  26
DETROIT LAKES  LGT RAIN  37  36  93 CALM      30.11R
MOORHEAD       CLOUDY    39  39 100 N14       30.14R FOG
PARK RAPIDS    CLOUDY    36  35  96 NW7       30.09R
MAHNOMEN       CLOUDY    35  35  97 N8        30.11R FOG     WCI  29
$$
MNZ006-009>011-018-025>026-301500-
   North Central Minnesota

CITY           SKY/WX    TMP DP  RH WIND       PRES   REMARKS
BAUDETTE       CLOUDY    37  33  85 NW10      30.11R
FLAG ISLAND    DRIZZLE   36  34  93 NW13      30.12R
INTL FALLS     CLOUDY    35  33  92 NW7       30.08R WCI  29
WASKISH        CLOUDY    36  34  93 NW3       30.12R
BIG FORK       MOCLDY    34  32  93 CALM      30.09R
LONGVILLE      CLOUDY    36  34  93 N3        30.08R
GRAND RAPIDS   CLOUDY    36  30  80 N6        30.08R
CRANE LAKE     CLOUDY    34  34 100 CALM      30.08R
ORR            CLOUDY    34  30  86 CALM      30.04S
COOK           CLOUDY    34  32  93 NW3       30.07R
WALKER         CLOUDY    35  33  92 N3        30.09R
$$
MNZ012-019>021-037-301500-
   Northeast Minnesota

CITY           SKY/WX    TMP DP  RH WIND       PRES   REMARKS
DULUTH         CLOUDY    36  31  82 NW6       30.05R
ELY            CLOUDY    34  34 100 NW3       30.05R
HIBBING        CLOUDY    36  31  82 N6        30.07R
EVELETH        CLOUDY    36  34  93 NW7       30.07R
DULUTH HARBOR  CLOUDY    39  36  87 CALM      30.09R
TWO HARBORS    CLOUDY    39 N/A N/A W3        30.04R
SILVER BAY     CLOUDY    37  34  87 W3        30.03R
GRAND MARAIS     N/A     41  36  82 CALM      30.03R
$$
MNZ029>031-032-039>041-046>048-054>057-064-301500-
   West Central Minnesota

CITY           SKY/WX    TMP DP  RH WIND       PRES   REMARKS
FERGUS FALLS   CLOUDY    39  37  93 N3        30.11R
WHEATON        CLOUDY    37  36  93 CALM      30.09R
MORRIS         CLOUDY    39  37  93 CALM      30.06R
ALEXANDRIA     CLOUDY    39  35  86 CALM      30.08R
ELBOW LAKE     CLOUDY    39  37  94 N3        30.08R
WADENA         CLOUDY    36  34  93 CALM      30.08R
GLENWOOD       LGT RAIN  37  36  93 N5        30.07R
APPLETON       CLOUDY    39  37  93 CALM      30.06R FOG
BENSON         CLOUDY    37  37 100 CALM      30.07R
ORTONVILLE     CLOUDY    36  36 100 CALM      30.06R FOG
MADISON        PTCLDY    37  37 100 CALM      30.06R FOG
WILLMAR        CLOUDY    41  37  87 CALM      30.07R
$$
MNZ033>034-036-042>043-049>051-058-059-301500-
   Central Minnesota

CITY           SKY/WX    TMP DP  RH WIND       PRES   REMARKS
ST CLOUD       CLOUDY    40  35  83 CALM      30.07R
SAUK CENTRE    CLOUDY    38  35  89 N3        30.07R
PAYNESVILLE    CLOUDY    37  33  88 CALM      30.06R
AITKIN         CLOUDY    37  34  87 CALM      30.06R
PINE RIVER     CLOUDY    36  36 100 CALM      30.11R
BRAINERD       LGT RAIN  37  35  92 CALM      30.07R
STAPLES        CLOUDY    36  34  93 CALM      30.08R
LONG PRAIRIE   CLOUDY    36  34  93 N5        30.07R
LITTLE FALLS   CLOUDY    36  34  93 CALM      30.07R
LITCHFIELD     CLOUDY    39  39 100 CALM      30.05R
BUFFALO        CLOUDY    39  34  82 CALM      30.06R
MAPLE LAKE     CLOUDY    40  37  88 NE3       30.06R
$$
MNZ037-044-045-052-053-301500-
   East Central Minnesota

CITY           SKY/WX    TMP DP  RH WIND       PRES   REMARKS
PRINCETON      MOCLDY    37  36  93 CALM      30.07R
MORA           PTSUNNY   36  32  87 CALM      30.09R
CAMBRIDGE      CLOUDY    41  32  70 CALM      30.05R
RUSH CITY      CLOUDY    37  33  87 CALM      30.08R
MOOSE LAKE     CLOUDY    36  32  87 CALM      30.06R
HINCKLEY       CLOUDY    36  34  93 CALM      30.08R
CLOQUET        CLOUDY    36  32  87 CALM      30.06S
MCGREGOR       CLOUDY    36  34  93 CALM      30.07R
$$
MNZ071>073-080-081-089-090-097-098-301500-
   Southwest Minnesota

CITY           SKY/WX    TMP DP  RH WIND       PRES   REMARKS
MONTEVIDEO     CLOUDY    36  36 100 N3        30.07R
GRANITE FALLS  PTCLDY    37  36  96 CALM      30.06R
CANBY          CLEAR     35  35  99 NW6       30.07R FOG     WCI  30
MARSHALL       MOCLDY    37  34  87 N6        30.03R
REDWOOD FALLS  MOCLDY    40  37  89 CALM      30.04R
OLIVIA         MOCLDY    39  36  87 CALM      30.04R
PIPESTONE      CLEAR     39  34  81 NW7       30.03R
WINDOM           N/A     41  36  81 CALM      30.02R
WORTHINGTON    CLOUDY    41  34  75 CALM      30.01R
JACKSON        CLOUDY    43  34  70 SE3       30.01R
TRACY          CLOUDY    42  37  83 CALM      30.02R
SLAYTON        MOCLDY    39  35  86 CALM      30.02R
$$
MNZ065>067-074>077-082>085-091>093-301500-
   South Central Minnesota

CITY           SKY/WX    TMP DP  RH WIND       PRES   REMARKS
MANKATO        CLOUDY    41  34  75 SE8       30.04R
NEW ULM          N/A     41  37  87 CALM      30.04R
ST JAMES       CLOUDY    43  36  75 CALM      30.03R
FAIRMONT       PTSUNNY   43  25  49 SE8       30.02R
GLENCOE        CLOUDY    40  38  90 CALM      30.04R
FARIBAULT      MIX PCPN  41  36  81 CALM      30.05R
OWATONNA       CLOUDY    41  36  81 SE3       30.05R
WASECA         CLOUDY    37  32  81 SE3       30.06R
ALBERT LEA     PTSUNNY   39  36  87 SE5       30.05R
$$
MNZ078>079-086>088-094>096-301500-
   Southeast Minnesota

CITY           SKY/WX    TMP DP  RH WIND       PRES   REMARKS
ROCHESTER      CLOUDY    38  34  85 S8        30.06R
RED WING       CLOUDY    39  36  87 CALM      30.06R
STANTON        DRIZZLE   41  35  80 CALM      30.04R
DODGE CENTER   CLOUDY    39  36  87 S5        30.05R
WINONA         CLOUDY    37  36  93 SE5       30.07S
AUSTIN         CLOUDY    39  36  87 CALM      30.05R
PRESTON        CLOUDY    37  33  87 S7        30.06S
$$
ABBREVIATIONS USED IN REMARKS
   TC - TEMPERATURES IN CELSIUS
  WCI - WIND CHILL INDEX
   HX - HEAT INDEX
  VSB - VISIBILITY
$$



USA.gov is the U.S. government's official web portal to all federal, state and local government web resources and services.